| time (UTC) | temp F | wind direction | speed knots | gust knots | rain 1hr in | rain 24hr in | rain mn in | humidity % | barometer mb |
| 20260508032213 | 41 | 0 | 1.7 | 0.0 | 0.00 | 0.00 | 0.00 | 99 | |
| 20260508022155 | 43 | 0 | 1.7 | 0.0 | 0.00 | 0.00 | 0.00 | 86 | |
| 20260508012311 | 43 | 360 | 4.3 | 0.0 | 0.00 | 0.00 | 0.00 | 93 | |
| 20260508002211 | 43 | 50 | 6.1 | 0.0 | 0.00 | 0.00 | 0.00 | 93 | |
| 20260507232212 | 43 | 40 | 6.1 | 0.0 | 0.00 | 0.00 | 0.00 | 86 | |
| 20260507222518 | 43 | 360 | 7.8 | 0.0 | 0.00 | 0.00 | 0.00 | 93 | |
| 20260507212214 | 41 | 330 | 7.8 | 0.0 | 0.00 | 0.00 | 0.00 | 93 | |
| 20260507202214 | 45 | 30 | 10.4 | 0.0 | 0.00 | 0.00 | 0.00 | 93 | |
| 20260507192316 | 46 | 360 | 6.1 | 0.0 | 0.00 | 0.00 | 0.00 | 87 | |
| 20260507182245 | 46 | 240 | 6.1 | 0.0 | 0.00 | 0.00 | 0.00 | 87 | |
| 20260507172229 | 50 | 0 | 4.3 | 0.0 | 0.00 | 0.00 | 0.00 | 81 | |
| 20260507162533 | 48 | 0 | 4.3 | 0.0 | 0.00 | 0.00 | 0.00 | 87 | |
| 20260507152214 | 50 | 0 | 4.3 | 0.0 | 0.00 | 0.00 | 0.00 | 81 | |
| 20260507142214 | 48 | 270 | 7.8 | 0.0 | 0.00 | 0.00 | 0.00 | 87 | |
| 20260507132315 | 50 | 280 | 6.1 | 0.0 | 0.00 | 0.00 | 0.00 | 76 | |
| 20260507122213 | 54 | 0 | 4.3 | 0.0 | 0.00 | 0.00 | 0.00 | 71 | |
| 20260507112229 | 54 | 0 | 4.3 | 0.0 | 0.00 | 0.00 | 0.00 | 71 | |
| 20260507102413 | 54 | 0 | 4.3 | 0.0 | 0.00 | 0.00 | 0.00 | 71 | |
| 20260507092213 | 52 | 0 | 4.3 | 0.0 | 0.00 | 0.00 | 0.00 | 76 | |
| 20260507082212 | 50 | 0 | 4.3 | 0.0 | 0.00 | 0.00 | 0.00 | 81 | |
| 20260507072214 | 50 | 250 | 7.8 | 0.0 | 0.00 | 0.00 | 0.00 | 87 | |
| 20260507062212 | 46 | 210 | 10.4 | 0.0 | 0.00 | 0.00 | 0.00 | 93 | |
| 20260507052212 | 45 | 200 | 10.4 | 0.0 | 0.00 | 0.00 | 0.00 | 99 | |
| 20260507042414 | 45 | 200 | 6.1 | 0.0 | 0.00 | 0.00 | 0.00 | 99 |